Temp_Advection
nan nan nan nan nan nan nan nan nan nan nan nan nan nan nan nan nan nan nan nan nan nan nan nan nan nan nan nan nan nan nan nan nan nan nan nan nan nan nan nan nan nan nan nan nan nan nan nan nan nan nan nan nan nan nan nan nan nan nan nan nan nan nan nan nan nan nan nan nan
nan 0 0 0 0 0 0 0 0 0 0 0 0 0 0 0 0 0 0 -0 -0 -0 0 0 0 0 0 0 0 0 0 0 0 0 0 0 -0 -0 -0 -0 -0 -0 -0 -0 -0 0 0 1 1 1 0 0 0 -0 -0 0 0 1 1 1 0 0 -0 -0 0 0 0 -0 nan
nan 0 0 0 0 0 0 0 -0 -0 -0 0 0 0 0 0 0 0 -0 -0 -0 -0 0 0 0 0 0 0 0 0 0 0 0 0 0 -0 -0 -0 -0 -0 -0 -0 -0 -0 0 0 0 1 1 0 0 0 0 0 0 0 0 0 0 0 0 0 -0 -0 0 0 0 -0 nan
nan 0 0 0 0 0 0 -0 -0 -0 -0 0 0 0 0 0 0 0 -0 -0 -0 -0 0 1 0 0 0 0 0 0 0 0 0 0 0 -0 -0 -0 -0 -0 0 0 0 0 0 1 1 1 0 -0 -0 -0 -0 -0 -0 0 0 0 1 1 1 0 -0 -0 0 0 0 0 nan
nan 0 -0 -0 -0 -0 -0 -0 -0 -0 -0 0 0 0 0 0 0 0 0 0 -0 -0 0 1 0 0 0 0 0 0 0 0 0 0 -0 -0 -0 -0 -0 0 0 0 1 1 1 0 0 -0 -0 -1 -1 -0 -0 0 1 1 1 1 1 1 0 -0 -1 -1 0 1 1 1 nan
nan -0 -0 -0 -0 -0 -0 0 0 0 0 0 0 0 0 0 0 0 0 -0 -0 0 1 1 0 0 0 0 0 0 0 0 0 0 0 -0 -0 -0 0 0 0 1 1 0 -0 -0 -1 -1 -0 -0 0 0 1 1 1 1 0 0 0 -0 -1 -1 -0 0 1 1 1 0 nan
nan -0 -0 -0 -0 -0 -0 0 0 0 0 0 0 0 0 0 0 0 0 0 0 0 1 1 1 1 0 0 0 0 0 0 0 0 0 0 -0 -0 0 0 0 0 0 -0 -0 -0 -0 -0 0 1 1 1 1 0 0 -0 -0 -0 -0 -0 -0 -0 0 1 1 1 0 0 nan
nan -0 -0 -0 -0 -0 -0 0 0 0 0 0 0 0 0 0 0 0 0 0 1 1 1 1 1 0 0 0 0 0 0 0 0 0 0 0 0 -0 -0 0 0 0 0 0 -0 -0 -0 0 0 0 0 0 0 -0 -1 -1 -0 0 0 0 0 0 1 0 0 0 -0 -0 nan
nan -0 -0 -0 -0 0 0 0 0 0 0 0 0 0 0 0 0 0 0 1 1 1 1 0 0 0 0 0 0 0 0 0 0 0 0 0 0 -0 -0 0 0 0 -0 -0 0 0 0 -0 -0 -0 -0 -0 -0 -0 -0 0 0 0 0 0 0 0 0 -0 -1 -0 0 0 nan
nan -0 -0 -0 0 0 0 0 0 0 0 0 -0 0 0 0 0 1 1 1 1 1 1 0 0 0 0 0 0 0 0 0 1 1 1 0 -0 -0 -0 -0 -0 -0 -0 -0 -0 -0 -0 -0 -0 -0 -0 0 0 0 1 0 0 0 0 0 -0 0 0 -0 -0 -0 0 1 nan
nan 0 -0 -0 -0 0 0 0 -0 -0 0 0 0 0 0 1 1 1 1 1 1 0 0 0 1 0 0 0 0 0 0 0 1 1 1 0 -0 -1 -0 -0 -0 -0 -0 -0 -0 -0 -0 -0 -0 -0 0 0 0 0 0 -0 -0 -0 -0 -0 -0 0 0 0 0 0 0 0 nan
nan 0 0 0 0 0 0 0 -0 -0 -0 0 0 0 0 1 1 1 1 1 1 1 1 1 1 1 0 0 1 1 0 0 1 1 1 -0 -1 -1 -0 -0 -0 -0 -0 -0 -0 -0 -0 -0 -0 0 0 0 -0 -0 -0 0 0 -0 -0 -0 -0 -0 -0 -0 0 0 0 0 nan
nan -0 0 0 0 0 0 0 -0 -0 -0 0 0 0 1 1 1 2 1 1 1 1 1 1 1 0 0 1 1 1 1 0 -0 -0 -0 -1 -1 -0 -0 -0 -0 -0 -0 -0 -0 -0 -0 -0 -0 0 0 -0 -0 -0 0 -0 -0 -0 -0 -0 -0 -0 0 0 0 0 0 0 nan
nan -0 0 0 0 0 0 0 -0 -0 -0 0 0 1 1 1 2 2 1 1 1 1 1 1 1 0 0 1 1 0 -0 -1 -1 -1 -0 -0 -1 -0 -0 0 -0 -0 -0 -0 -0 -0 -0 -0 -0 -0 -0 -0 -0 -0 -0 -0 -0 -0 -0 -0 -0 -0 0 0 0 -0 -0 -0 nan
nan -0 -0 0 0 0 0 0 0 0 0 1 1 1 1 2 2 2 1 1 1 1 1 1 0 0 0 0 0 -0 -1 -1 -1 -0 -0 -0 -0 -0 -0 -0 -0 -0 -0 -0 -0 -0 -0 -0 -0 -0 -0 -0 -0 -0 -0 -0 -0 -0 -0 -0 -0 -0 0 0 0 -0 -0 -0 nan
nan -0 0 0 0 -0 0 -0 0 0 1 1 1 1 1 2 2 2 1 1 1 1 0 0 0 0 0 -0 -0 -0 -0 -0 -0 -0 -0 -0 -0 -0 -0 -0 -0 -0 -0 -0 -0 -0 -0 -0 -0 -0 -0 -0 -0 -0 0 -0 -0 -0 -0 -0 -0 0 0 0 0 0 -0 -0 nan
nan -0 0 0 0 0 -0 -0 0 0 1 1 1 1 1 1 1 1 1 1 1 1 0 -0 -0 -0 -0 -0 -0 -0 -0 -0 -0 -1 -1 -1 -0 -0 -0 -0 -0 -0 -0 -0 -0 -0 -0 -0 -0 -0 -0 -0 -0 -0 -0 -0 -0 -0 -0 -0 0 0 0 0 0 0 0 0 nan
nan -0 0 0 0 0 0 -0 -0 0 1 1 1 1 1 1 1 1 1 1 1 1 0 -0 -0 -0 -0 -0 -0 -0 -0 -0 -1 -1 -1 -1 -0 -0 0 -0 -0 -0 -0 -0 -0 -0 -0 -0 -0 -0 -0 -0 -0 -0 -0 -0 -0 -0 -0 -0 0 0 0 -0 -0 -0 -0 -0 nan
nan -0 -0 0 1 1 0 0 0 0 0 1 1 1 1 1 1 1 1 1 1 1 0 -0 -0 -0 -0 -0 -0 -0 -0 -0 -1 -1 -1 -1 -0 -0 -0 -0 -0 -0 -0 -0 -0 -0 -0 -0 -0 -0 -0 -0 -0 -0 -0 -0 -0 0 0 0 0 0 -0 -0 -0 -0 -0 -0 nan
nan -1 -0 -0 -0 0 1 0 0 0 1 1 1 1 1 1 1 1 1 0 0 1 1 0 0 -0 -0 -1 -1 -0 -0 -0 -1 -1 -1 -0 -0 -0 -0 -0 -0 -0 -0 -0 -0 0 -0 -0 -0 -0 -0 -0 -0 -0 0 0 0 0 0 0 0 0 -0 -0 -0 -0 0 0 nan
nan -0 -0 -0 -0 0 0 0 0 0 1 1 1 1 1 1 1 1 0 -0 0 0 1 1 0 -0 -0 -1 -1 -0 -0 -1 -1 -1 -1 -0 -0 -0 -0 -0 -0 -0 0 0 0 0 0 -0 -0 -0 -0 -0 0 0 0 0 0 0 0 0 -0 -0 -0 -0 0 0 0 0 nan
nan -0 -0 -0 -0 -0 0 1 1 0 1 1 1 1 1 1 1 0 0 -0 0 1 1 1 0 -0 -1 -0 -0 -0 -0 -1 -1 -0 -0 -0 -0 -0 -0 -0 -0 -0 -0 0 0 -0 -0 -0 -0 -0 -0 0 0 0 0 0 0 0 0 0 0 -0 -0 0 0 0 0 0 nan
nan -0 -0 -0 -0 -0 0 1 1 1 1 1 1 1 1 1 0 -0 -0 0 0 1 1 0 -0 -0 -0 -0 -0 -0 -1 -1 -1 -0 -0 -0 -0 -0 -0 -0 -0 -0 -0 -0 -0 -0 -0 -0 -0 0 0 0 0 0 0 0 0 0 0 0 0 0 0 -0 0 0 0 0 nan
nan -0 -0 0 0 0 1 1 1 1 1 1 1 1 1 0 0 -0 0 0 1 1 0 -0 -0 -0 0 0 -0 -0 -0 -1 -0 -0 -0 -0 -0 -0 -0 -0 -0 -0 -0 -0 -0 -0 -0 0 0 0 1 1 0 0 0 0 0 0 0 0 0 0 0 0 0 0 0 0 nan
nan -0 -0 -0 0 0 1 1 1 1 1 1 1 1 0 0 0 0 0 0 1 1 0 -0 -0 -0 0 0 -0 -0 -0 -0 -1 -1 -0 -0 -1 -0 -0 -0 -0 -0 -0 -0 -0 0 0 1 1 1 1 1 0 0 0 0 0 0 0 0 0 0 0 0 0 0 0 0 nan
nan -0 -0 -0 0 0 1 1 1 1 1 1 1 0 0 0 1 0 0 0 1 0 0 0 0 -0 0 0 -0 -0 -0 -1 -1 -1 -1 -0 -0 -0 -0 -0 -0 -0 -0 0 0 1 1 1 1 1 0 0 0 0 0 0 0 0 0 0 0 0 0 0 0 0 0 0 nan
nan -0 -0 -0 -0 0 1 1 1 1 1 1 1 1 1 1 0 0 0 0 1 1 0 0 0 0 0 -0 -0 -0 -0 -1 -1 -1 -1 -1 -1 -0 -0 0 -0 -0 0 1 1 1 1 1 1 0 0 0 0 0 0 0 0 0 0 0 0 0 0 0 0 0 0 0 nan
nan 0 -0 -0 -0 0 1 1 1 1 1 1 1 1 1 0 0 0 0 1 1 0 0 0 0 0 0 0 -0 -0 -0 -0 -1 -1 -0 -0 -0 -0 0 0 0 0 1 1 1 1 1 1 0 0 0 0 0 0 0 0 0 0 0 0 0 0 0 0 0 0 0 0 nan
nan 0 -0 -0 0 0 1 1 1 1 1 1 1 1 1 0 0 0 0 1 0 0 0 0 0 0 0 0 0 0 -0 -0 -0 -0 -0 -0 -0 0 0 1 1 1 1 1 1 1 0 0 0 0 0 0 0 0 0 0 0 0 0 0 0 0 0 0 0 0 0 0 nan
nan 0 0 0 0 0 1 1 1 1 1 1 1 1 0 0 0 0 0 0 1 1 0 0 1 0 0 0 0 0 0 0 -0 0 0 0 0 0 0 1 1 1 1 1 0 0 0 0 0 0 0 0 0 0 0 0 0 0 0 0 0 0 0 0 0 0 0 0 nan
nan 0 0 0 0 0 1 1 1 1 1 1 1 1 0 0 0 0 0 0 0 0 0 1 1 0 0 -0 -0 0 0 0 0 0 0 0 0 0 0 0 0 0 0 0 0 0 0 0 0 0 0 0 0 0 0 0 0 0 0 0 0 0 0 0 0 0 0 -0 nan
nan 0 0 0 0 1 1 1 1 1 1 1 1 1 0 1 1 1 0 0 0 0 0 1 1 0 0 -0 0 0 0 0 0 0 0 0 0 0 0 0 0 0 0 0 0 0 0 0 0 0 0 0 0 0 0 0 0 0 0 0 0 0 0 0 -0 -0 -0 -0 nan
nan 0 0 0 1 1 1 1 1 1 1 1 1 1 0 1 1 0 0 0 0 0 0 0 0 0 0 0 0 0 0 0 0 0 0 0 0 0 0 0 0 0 0 0 0 0 0 0 0 0 0 0 0 0 0 0 0 0 0 0 0 -0 -0 -0 -0 -0 -0 0 nan
nan 0 0 0 0 1 1 1 1 1 1 1 1 1 1 1 1 0 0 0 0 0 0 0 0 -0 -0 -0 -0 -0 -0 -0 -0 -0 0 0 -0 -0 -0 -0 -0 -0 0 0 0 0 0 0 0 0 0 0 0 0 0 0 0 -0 -0 -0 -0 -0 -0 -0 -0 0 0 0 nan
nan 0 0 0 0 1 1 1 1 1 1 1 1 1 1 1 0 0 -0 0 0 0 0 0 -0 -0 -0 -0 -0 -0 -0 -0 -0 -0 0 0 0 -0 -0 -0 -0 0 0 0 0 0 0 0 0 0 0 0 0 0 0 -0 -0 -0 -0 -0 -0 -0 -0 0 0 0 0 0 nan
nan 1 1 0 0 0 1 1 1 1 1 1 1 1 1 0 -0 -0 0 0 0 0 0 -0 -0 -0 -0 -0 -0 -0 -0 -0 0 0 0 -0 -0 -0 -0 -0 0 0 0 0 0 0 0 0 0 0 0 0 -0 -0 -0 -0 -0 -0 -0 -0 0 0 0 0 0 0 0 0 nan
nan 1 1 1 1 1 1 1 1 1 1 1 1 1 1 0 -0 -0 0 0 -0 -0 -0 -0 -0 -0 -0 -0 0 0 0 0 0 0 0 -0 -0 -0 -0 0 0 0 0 0 0 0 0 0 0 0 -0 -0 -0 -0 -0 -0 -0 -0 0 0 0 0 0 0 0 0 0 0 nan
nan 1 1 1 1 1 1 1 1 1 1 1 1 1 1 0 -0 -0 -0 -0 -0 -0 -0 -0 -0 -0 0 0 0 0 0 0 0 0 -0 -0 -0 0 0 0 0 0 0 0 0 0 0 -0 -0 -0 -0 -0 -0 -0 -0 -0 0 0 0 0 0 0 0 0 0 0 0 0 nan
nan 1 1 1 1 1 1 1 1 1 1 2 1 1 0 0 -0 -0 -0 -0 -0 -0 -0 -0 -0 0 0 -0 -0 0 0 0 0 0 -0 -0 0 0 0 0 0 0 0 0 0 0 -0 -0 -0 -0 -0 -0 -0 -0 0 0 0 0 0 0 0 0 0 0 0 0 0 0 nan
nan 0 0 1 1 1 2 2 2 2 2 2 1 1 0 -0 -1 -0 -0 -0 -0 -0 -0 -0 0 0 0 -0 -0 0 0 0 0 0 0 0 0 0 0 0 0 0 0 0 -0 -0 -0 -0 -0 -0 -0 -0 0 0 0 0 0 0 0 0 0 0 0 0 0 0 0 0 nan
nan nan nan nan nan nan nan nan nan nan nan nan nan nan nan nan nan nan nan nan nan nan nan nan nan nan nan nan nan nan nan nan nan nan nan nan nan nan nan nan nan nan nan nan nan nan nan nan nan nan nan nan nan nan nan nan nan nan nan nan nan nan nan nan nan nan nan nan nan
Wind_Speed
20 20 20 19 19 19 20 20 21 22 22 22 23 23 24 24 24 24 25 25 26 26 26 26 26 26 25 25 25 24 24 24 24 24 24 24 24 25 25 25 25 26 26 26 27 27 26 25 24 24 24 24 24 24 24 24 23 23 22 21 19 17 15 16 18 19 21 22 23
20 19 19 19 19 19 20 21 21 22 22 23 23 23 24 24 24 24 25 25 26 26 26 26 26 25 24 24 24 23 23 23 23 23 23 23 23 23 23 23 24 24 24 24 25 25 24 24 23 23 23 23 23 22 22 22 22 20 19 17 16 15 16 17 19 19 19 21 23
19 19 18 18 19 19 20 20 21 22 23 23 23 23 23 24 24 24 25 26 26 26 26 25 25 24 24 23 23 23 22 22 22 22 22 22 22 22 22 22 22 22 23 22 22 22 22 22 22 21 21 21 21 21 21 20 19 18 16 16 16 15 16 18 19 19 19 20 21
18 18 18 18 18 19 20 20 21 22 23 23 23 23 24 24 24 25 25 25 26 26 25 24 24 24 23 22 22 22 22 21 21 21 21 21 21 21 21 21 21 21 21 20 20 20 19 19 19 19 19 19 19 19 18 17 16 16 16 16 15 15 17 19 20 21 20 19 18
17 17 17 18 18 19 20 21 21 22 23 23 23 24 24 24 25 25 25 25 25 25 24 24 23 23 22 21 21 21 21 21 20 20 20 20 20 20 20 19 19 19 18 18 18 17 17 17 17 17 17 17 17 16 15 15 15 15 15 15 15 16 17 19 21 20 19 18 17
16 16 17 18 18 19 20 21 22 22 23 23 24 24 24 24 25 25 25 25 25 24 24 23 22 22 21 21 20 20 20 20 20 19 19 19 19 19 18 18 17 17 17 17 16 16 15 15 16 16 15 15 14 13 13 14 14 14 14 15 17 18 20 21 20 19 17 17 18
16 16 17 18 19 20 21 22 22 23 23 23 24 24 24 25 25 25 24 24 24 24 23 23 22 21 20 20 20 20 19 19 19 18 18 18 17 17 17 16 16 16 16 15 14 14 14 15 15 15 14 13 13 13 14 15 15 15 16 17 19 20 20 20 19 18 17 18 20
16 17 18 18 20 20 21 22 23 23 23 24 24 24 24 24 24 24 24 24 23 23 22 22 21 21 20 20 20 19 19 18 17 17 17 16 16 15 15 15 14 14 14 14 13 13 13 13 13 13 13 13 14 15 16 16 16 16 17 17 17 17 17 16 17 17 18 20 20
16 17 18 19 20 21 22 22 23 23 23 24 24 24 24 24 24 24 24 23 23 22 22 21 21 21 20 20 20 19 18 17 16 15 15 14 14 13 13 13 12 12 12 12 13 13 12 12 11 11 12 13 14 15 15 15 15 15 15 15 14 13 13 14 16 18 19 19 18
17 18 19 20 21 21 22 22 23 23 24 24 24 25 25 25 24 24 23 23 22 22 21 21 21 20 20 19 18 17 16 15 14 13 12 12 12 12 12 11 11 10 10 11 11 12 12 11 11 11 11 11 11 11 11 12 12 12 12 12 12 12 12 13 15 17 17 16 16
18 19 19 20 21 22 22 23 23 24 24 24 25 25 25 25 24 23 23 22 22 21 21 20 20 19 19 17 16 15 15 15 14 12 12 12 12 12 12 11 11 10 10 10 10 10 10 10 10 10 11 11 10 10 11 11 11 10 10 10 11 12 12 13 14 14 14 13 13
18 19 20 21 22 22 23 23 24 24 25 25 25 25 25 24 24 23 22 22 21 21 20 19 19 18 17 15 15 15 15 15 14 14 14 14 13 13 13 12 12 11 11 11 10 10 10 10 10 10 10 11 11 12 12 12 11 10 10 10 11 12 12 13 13 13 13 13 13
19 20 21 21 22 22 23 23 24 25 25 25 24 24 24 23 23 22 21 21 21 20 19 18 17 17 16 15 15 15 16 16 15 15 15 15 15 14 14 14 14 13 13 13 12 12 12 12 12 12 12 12 12 12 12 12 12 12 12 12 12 13 13 14 14 14 14 14 15
20 21 22 22 23 23 23 24 24 25 25 25 24 23 23 22 22 21 21 20 20 20 19 18 18 17 17 17 17 17 17 17 17 17 17 17 16 16 16 16 15 15 15 15 15 14 14 14 14 14 14 14 14 14 14 14 14 13 13 13 14 14 15 15 15 15 15 15 16
21 22 22 23 23 24 24 24 24 25 24 24 23 22 22 21 21 20 20 20 20 20 20 19 19 19 18 18 18 18 18 18 18 18 18 18 18 18 17 17 16 16 16 16 16 16 16 16 16 16 16 16 16 16 16 16 16 15 15 15 15 16 16 16 16 16 16 17 17
22 22 23 23 24 24 24 24 24 24 24 23 22 21 21 20 20 20 20 20 20 20 20 20 20 20 20 19 19 19 19 20 20 20 20 20 19 19 18 18 17 17 17 17 17 17 17 17 17 17 17 17 17 17 17 17 17 18 18 18 18 18 17 17 17 17 17 17 18
22 23 23 23 23 24 24 24 24 24 23 22 20 20 20 20 20 20 20 20 21 21 21 21 21 21 21 21 20 20 20 21 21 22 21 21 20 20 19 18 18 18 18 18 18 17 17 17 17 17 17 18 18 18 18 18 19 19 19 19 19 19 19 19 19 19 19 19 19
23 23 24 23 23 23 23 23 23 23 22 21 19 19 19 19 19 20 20 20 21 21 22 22 22 22 22 22 22 21 22 22 22 23 23 22 21 20 20 19 19 19 18 18 18 18 18 18 18 18 19 19 19 19 19 20 20 20 20 20 20 20 20 20 20 20 20 20 20
23 24 24 24 23 23 22 22 22 22 21 20 18 18 18 18 19 19 20 20 21 21 22 22 22 22 22 22 22 22 23 23 23 24 23 23 22 22 21 21 20 20 20 19 19 19 19 19 19 19 19 20 20 20 20 21 21 20 20 20 20 20 20 20 20 20 20 19 19
24 24 24 24 23 23 22 21 21 21 20 19 18 17 17 18 18 19 19 20 20 21 21 21 21 22 22 23 23 23 23 24 24 24 24 24 23 23 23 22 22 22 21 21 21 21 20 20 20 20 20 20 21 21 21 21 21 20 19 19 19 19 19 19 19 19 18 17 16
24 24 24 24 23 22 21 21 20 20 19 18 17 16 17 17 18 18 19 20 20 21 21 21 21 22 22 23 23 23 23 24 25 25 25 24 24 24 24 24 23 23 22 22 22 22 21 21 21 21 21 21 21 21 21 20 20 19 18 18 18 17 17 17 17 16 15 15 14
23 24 24 23 23 22 21 20 19 19 18 17 16 16 16 17 18 19 19 20 20 21 21 21 22 22 23 23 23 23 24 25 25 25 25 25 25 25 25 25 24 23 23 23 22 22 22 22 21 21 21 21 21 20 20 19 18 17 16 16 16 16 15 15 14 13 12 12 11
23 23 23 23 22 21 20 19 18 18 18 17 16 16 16 17 18 19 20 20 21 21 21 22 23 23 23 23 23 24 24 25 25 25 25 25 25 25 25 25 24 23 23 23 23 22 22 22 22 21 21 20 20 19 17 16 15 15 14 14 14 13 13 12 11 11 10 10 10
23 23 23 22 22 21 20 18 18 18 17 17 16 16 17 18 18 19 20 20 20 21 22 23 23 23 23 23 24 24 25 25 25 25 25 25 25 25 25 24 24 23 23 23 23 22 22 21 21 20 19 18 17 16 15 14 13 13 13 12 12 12 11 10 10 9 9 9 9
23 23 22 22 21 20 19 18 17 17 17 17 17 17 18 18 18 19 19 19 20 21 22 22 23 23 23 23 24 24 24 24 25 25 25 25 25 25 24 24 23 23 23 22 22 21 21 20 19 18 17 16 15 14 14 13 12 12 12 11 11 11 10 10 9 9 9 8 8
22 22 22 21 21 20 19 18 17 16 17 17 18 18 18 18 18 18 19 19 20 21 21 22 22 23 23 23 23 23 24 24 24 24 24 24 24 24 23 23 22 22 22 21 20 19 19 18 17 16 15 14 14 13 13 12 12 11 11 11 11 10 10 9 9 9 9 8 8
22 22 22 21 20 19 18 18 17 16 16 17 17 18 18 18 18 19 19 19 20 20 21 21 21 22 22 22 22 22 23 23 23 23 23 23 23 23 22 21 21 20 19 18 18 17 16 16 15 14 14 13 13 12 12 12 11 11 11 11 11 10 10 9 9 9 8 8 8
22 22 21 21 20 19 18 18 17 17 17 17 17 17 18 18 18 19 19 19 19 20 20 20 20 20 20 21 21 21 21 22 22 21 21 21 21 20 20 19 18 17 16 16 15 15 14 14 14 13 13 12 12 12 12 12 11 11 11 11 11 10 10 9 9 9 8 8 8
22 21 21 20 19 19 18 18 17 17 17 17 17 17 17 17 18 18 18 18 18 19 19 19 19 19 19 19 19 19 19 19 19 19 18 18 17 17 17 16 15 14 14 13 13 13 13 13 13 12 12 12 12 12 12 12 12 11 11 10 10 10 9 9 9 8 8 8 7
21 21 20 19 19 18 18 17 17 17 16 16 16 16 16 16 16 16 16 16 16 16 17 17 17 16 16 16 16 16 15 15 15 14 14 14 14 14 13 13 12 12 12 12 12 12 12 12 12 12 12 12 12 12 12 12 11 11 10 10 9 9 9 9 8 8 8 7 6
21 20 20 19 18 18 18 17 17 16 16 16 15 15 15 15 14 14 14 14 13 13 14 13 13 13 12 12 12 11 11 10 10 10 10 10 10 11 11 11 11 11 11 11 11 11 12 11 11 11 11 11 11 11 11 11 10 10 9 9 8 8 8 8 8 8 7 6 5
21 20 19 18 18 18 17 17 16 16 15 15 14 14 14 13 13 13 12 11 11 10 10 9 9 9 9 8 8 8 7 7 7 8 8 9 9 10 10 10 10 11 11 11 11 11 11 11 11 11 11 11 11 10 10 9 9 8 8 8 8 8 8 7 7 6 6 5 5
21 20 19 18 18 17 17 17 16 15 15 14 13 13 13 12 12 11 10 9 8 7 7 7 7 7 7 6 6 7 7 7 8 8 8 9 9 10 10 10 10 10 11 11 11 10 10 10 10 10 10 10 9 9 9 8 8 8 8 8 7 7 7 6 6 5 5 5 5
21 20 19 18 17 17 17 16 16 15 14 13 12 12 12 11 10 9 8 7 6 6 6 7 7 7 7 7 7 8 8 8 9 9 9 9 9 9 10 10 10 11 11 10 10 10 10 9 9 9 9 9 9 9 8 8 8 8 8 7 7 7 6 6 5 5 5 5 6
20 19 18 18 17 17 16 16 15 14 13 12 12 11 11 10 9 9 8 6 6 6 7 8 8 8 8 9 9 9 9 9 9 9 9 9 9 10 10 11 11 11 10 10 10 10 9 9 9 9 9 9 9 8 8 8 8 8 8 7 7 6 6 5 5 6 6 6 6
20 19 18 17 17 17 16 15 15 14 13 12 11 10 10 10 9 8 7 7 7 7 8 8 8 9 9 9 9 9 9 9 9 9 9 9 10 10 10 11 11 10 10 10 10 10 9 9 9 9 9 9 8 8 8 8 8 7 7 6 6 6 6 6 6 6 6 6 6
20 19 18 17 17 16 16 15 14 14 13 12 11 10 9 9 9 8 8 7 8 8 8 8 9 9 9 9 9 9 9 9 9 9 9 10 10 10 10 10 10 10 10 10 10 10 10 10 9 9 9 9 8 8 8 7 7 7 6 6 6 6 6 6 6 6 6 6 6
20 18 17 17 16 16 16 15 14 14 13 12 11 10 10 10 9 9 8 9 9 9 9 9 9 9 9 9 9 9 9 9 9 9 10 10 10 10 9 9 9 10 10 10 10 10 10 10 10 9 9 9 8 8 7 7 6 6 6 6 6 6 6 6 6 6 6 5 5
19 18 17 17 16 16 16 15 14 13 12 11 11 10 11 10 10 10 10 10 10 10 9 9 10 10 10 11 11 10 10 10 10 10 10 10 9 9 9 9 9 10 10 10 10 10 10 10 9 9 9 8 8 7 6 6 6 5 6 6 6 6 6 6 6 5 5 4 4
18 18 17 16 16 16 15 15 14 13 12 11 11 11 11 11 11 11 11 11 11 11 10 10 10 11 11 12 12 11 11 11 11 11 11 10 10 9 9 10 10 10 10 10 10 10 10 9 9 8 8 7 7 6 6 5 5 5 6 6 6 6 6 5 5 4 4 4 4
18 17 16 16 16 16 15 15 14 13 12 12 11 11 12 12 12 12 11 11 11 11 11 11 11 12 12 13 12 12 12 12 12 12 12 11 11 10 10 11 11 10 10 10 10 10 9 9 8 8 7 6 6 5 5 5 5 6 6 6 5 5 5 4 4 3 3 4 4
Wind_Direction
257 259 260 262 264 267 268 270 270 271 270 270 270 271 272 274 275 276 277 278 279 280 281 283 284 284 285 285 284 284 283 282 281 280 279 278 277 276 275 273 272 270 268 266 264 262 260 259 258 257 256 255 254 255 256 258 260 261 262 260 258 257 254 249 246 248 250 250 251
258 260 263 265 267 269 270 271 271 271 271 271 271 273 274 275 276 277 278 279 280 281 282 283 284 284 284 284 283 282 281 280 279 278 277 276 276 275 274 273 271 270 268 266 264 263 262 260 260 259 259 260 260 261 262 262 263 263 261 256 253 250 248 244 244 244 245 246 248
260 263 265 268 270 271 271 272 273 273 273 274 274 275 276 277 277 278 279 279 281 282 283 284 284 283 283 282 281 280 278 277 277 276 275 274 273 272 271 270 268 267 266 265 264 263 262 261 261 261 263 264 265 266 265 263 261 257 252 247 245 244 246 247 245 244 243 245 248
263 265 268 270 272 272 273 274 274 275 276 276 277 277 277 278 279 279 280 281 282 283 283 283 283 282 281 280 279 277 276 275 274 273 272 271 270 269 269 268 267 266 265 263 262 262 261 261 261 261 262 262 261 259 256 253 250 246 244 243 244 247 251 252 250 248 247 249 252
265 268 271 272 274 275 275 276 276 277 277 278 278 279 279 279 280 280 281 282 282 283 283 282 281 280 279 278 275 274 273 272 271 270 269 269 269 268 268 267 267 265 264 263 261 260 259 259 258 256 254 253 250 246 244 244 244 246 247 249 251 253 254 253 251 250 250 253 258
268 271 273 275 275 276 277 277 277 278 278 279 279 280 280 280 281 281 281 281 282 282 282 281 279 278 276 274 272 270 269 268 268 267 267 267 267 267 267 267 266 265 263 262 260 258 256 253 251 248 245 243 244 245 248 251 253 254 255 256 256 255 253 251 249 250 252 256 258
272 274 276 277 277 278 278 278 278 278 279 279 280 280 281 281 281 282 281 281 282 281 280 279 277 275 272 269 267 266 265 265 265 264 264 264 265 266 266 266 266 265 263 262 260 258 254 251 249 248 249 251 254 257 258 258 257 256 256 255 255 254 251 248 247 248 251 253 253
275 276 278 278 279 279 279 279 279 279 280 280 280 281 281 282 282 282 281 281 280 279 278 276 273 270 267 264 262 262 262 262 262 261 261 261 261 262 263 263 266 267 265 261 257 254 253 253 253 254 257 261 260 258 256 253 252 252 253 255 257 257 256 254 252 250 249 248 248
278 279 279 280 280 280 280 280 280 280 281 282 282 282 282 282 281 281 280 279 278 276 274 271 268 265 263 261 259 259 258 258 258 259 260 261 261 262 262 264 268 271 271 266 257 251 251 254 257 256 255 255 253 252 252 253 255 257 258 260 262 263 264 264 264 260 254 248 245
281 282 282 282 282 282 282 282 283 283 283 284 284 284 283 282 281 280 278 276 274 272 269 266 264 262 260 258 257 256 255 256 256 258 261 263 264 264 265 267 272 277 278 275 266 258 255 257 259 258 254 250 248 251 256 261 263 262 262 262 262 261 260 260 261 260 257 252 249
284 285 285 285 285 285 285 286 285 286 286 286 286 285 284 282 280 278 276 274 270 267 264 263 261 259 258 257 256 256 256 256 258 259 259 259 259 260 262 264 268 273 276 274 271 267 264 265 267 267 264 261 261 264 267 267 265 262 261 261 260 259 257 257 258 261 264 264 263
287 287 287 287 287 288 288 288 289 288 288 288 288 286 284 281 279 276 273 270 266 263 262 260 259 257 256 255 254 254 256 257 257 257 254 253 253 255 257 258 261 264 267 267 267 266 266 267 269 272 273 274 275 276 276 275 274 273 272 271 271 270 270 270 272 274 276 279 279
288 289 289 289 289 290 290 291 291 291 290 290 288 286 283 279 277 274 270 266 263 261 259 257 255 253 252 251 250 251 252 252 253 252 251 250 252 253 255 255 256 258 261 263 264 264 264 265 266 269 272 275 278 279 280 281 281 280 278 277 277 277 277 276 275 274 275 277 277
290 290 290 290 291 291 292 292 292 292 292 291 288 285 281 277 273 270 266 263 260 258 255 252 250 248 247 247 247 248 248 249 250 250 250 250 251 253 254 255 256 258 260 262 263 264 264 265 266 267 268 271 274 277 279 281 281 281 279 278 277 276 275 273 270 268 267 267 267
291 291 291 292 293 293 294 294 294 293 293 292 288 284 279 274 269 266 262 259 257 255 253 250 248 246 245 246 246 247 248 250 250 251 251 251 251 253 254 257 258 260 261 262 264 265 265 266 267 267 268 269 272 275 279 281 283 284 283 281 279 278 276 273 270 268 266 265 264
291 291 292 293 294 295 295 295 295 295 294 292 288 282 276 271 266 262 259 256 255 253 252 250 248 247 246 246 246 248 250 251 253 252 252 252 252 254 256 258 260 261 262 263 264 265 266 268 269 269 271 272 274 277 280 283 285 286 286 285 283 282 280 278 276 274 273 271 269
291 291 293 294 295 296 296 296 295 295 294 292 286 280 273 268 264 260 256 253 252 252 251 251 250 248 247 247 247 249 250 252 253 253 253 252 253 255 257 259 260 261 261 262 264 266 268 269 270 272 274 275 277 279 281 283 284 284 284 284 283 282 281 280 279 279 278 277 276
291 292 293 295 296 297 297 296 296 295 294 291 284 278 272 267 263 259 255 253 251 250 251 252 251 250 250 249 249 249 250 252 253 254 254 254 254 256 257 258 259 260 261 262 264 266 268 270 272 273 275 276 278 279 280 281 281 281 280 280 279 279 278 277 277 277 277 277 277
292 294 295 297 298 298 297 297 296 295 292 289 283 276 270 266 262 259 256 254 251 250 251 252 253 253 252 251 251 251 252 253 254 255 255 255 256 256 257 257 258 259 260 261 263 266 268 269 271 272 274 275 277 278 278 278 278 277 276 275 275 275 274 274 274 273 273 273 273
294 296 298 299 300 300 299 297 295 293 290 287 282 276 270 266 262 259 257 256 254 252 252 252 254 254 254 253 253 253 253 254 255 256 256 256 257 257 257 257 258 258 259 261 263 265 266 268 269 271 272 274 275 275 275 275 275 274 274 273 273 273 272 272 272 271 270 268 267
295 297 299 300 300 300 299 296 294 291 288 285 280 275 270 266 262 259 257 257 256 255 254 254 254 254 254 254 253 254 254 255 256 256 257 257 258 258 258 258 258 259 260 262 263 265 266 267 268 269 270 271 271 271 271 271 272 272 272 272 272 272 271 271 269 267 265 263 260
296 297 299 300 300 300 298 295 292 289 287 283 278 273 269 265 262 260 258 257 256 256 255 255 254 253 253 254 254 254 255 255 256 257 258 258 258 258 259 259 260 261 262 263 263 264 265 266 267 267 267 267 267 267 268 268 270 271 271 272 271 271 270 268 266 263 259 256 253
296 298 299 300 299 298 296 293 290 287 284 281 275 270 266 264 262 261 259 258 257 256 256 255 254 253 253 254 254 255 255 256 257 258 258 259 259 259 260 260 261 262 262 262 263 263 264 264 264 264 264 263 263 264 265 266 268 268 269 269 269 268 268 266 263 259 254 251 247
296 298 299 299 298 297 295 292 288 285 282 278 273 268 264 262 262 262 261 260 259 258 257 256 255 255 255 255 256 256 257 257 258 259 259 259 260 260 261 261 261 261 261 262 262 262 262 261 261 260 259 258 258 259 261 263 264 264 264 263 263 264 263 262 260 255 250 247 244
297 298 299 298 297 295 293 290 287 283 279 276 272 269 266 264 263 263 263 262 260 259 258 258 258 258 258 258 258 259 259 259 260 260 261 261 261 261 261 261 261 260 260 260 259 259 258 256 255 254 253 253 253 255 257 259 260 260 259 258 258 258 259 259 258 253 249 246 244
297 298 298 297 296 294 292 289 286 282 279 276 273 271 269 267 265 264 263 261 260 259 259 259 259 260 260 260 261 261 261 261 261 261 261 262 262 262 262 261 260 259 258 256 254 253 251 249 248 247 246 247 249 251 254 255 256 256 255 255 255 254 255 255 255 253 249 245 243
297 298 298 296 295 293 291 288 285 282 279 276 274 272 270 269 267 264 263 261 261 260 260 260 261 261 261 261 262 262 262 262 261 261 261 261 262 261 260 259 257 255 253 250 246 244 242 241 240 240 241 243 247 249 251 252 253 253 252 252 252 253 252 251 250 249 246 241 237
296 297 297 296 294 292 290 287 285 282 279 276 274 272 270 268 266 265 264 263 263 262 262 262 262 262 261 261 260 260 260 261 261 261 261 260 259 258 256 254 252 248 244 240 236 234 233 233 234 236 239 242 245 248 249 250 250 250 250 250 250 250 249 247 245 241 238 233 228
296 296 296 295 293 291 288 286 284 282 280 277 275 272 270 269 268 267 267 266 265 264 263 262 262 262 261 260 259 259 259 260 259 259 258 256 253 251 248 245 241 237 232 228 226 225 226 228 230 234 238 242 244 246 247 247 248 248 248 247 246 244 241 239 236 232 227 222 217
295 296 296 294 291 289 287 285 283 282 280 277 275 273 271 271 271 271 270 269 266 264 262 262 262 262 261 259 258 258 257 256 255 253 251 248 244 241 237 233 228 224 221 219 219 220 222 226 230 234 238 241 242 244 244 245 246 245 243 240 236 233 230 228 225 222 218 215 215
295 295 295 293 290 288 286 285 283 281 279 277 275 274 272 272 272 272 271 267 264 262 261 261 260 258 257 257 255 253 249 247 245 242 238 234 231 227 223 220 217 215 215 215 216 219 223 227 231 234 238 240 242 243 243 242 240 238 233 228 225 221 220 219 218 217 217 218 221
294 294 293 291 288 286 284 283 282 280 278 276 275 273 273 273 272 270 267 263 260 258 256 254 251 249 248 247 244 239 234 230 227 226 224 221 219 216 214 213 212 212 212 215 217 221 225 228 232 235 237 239 239 238 236 234 229 225 220 216 214 214 214 216 218 222 226 232 236
293 293 291 289 286 284 283 281 280 278 277 275 274 272 272 272 270 266 260 255 250 246 244 242 239 236 233 230 226 222 217 214 214 215 215 215 214 213 212 213 212 213 214 215 218 222 225 228 231 232 233 232 231 227 223 219 215 212 209 209 210 212 215 219 225 232 238 245 248
292 291 289 286 283 282 280 279 277 276 275 273 271 270 269 269 265 258 249 241 237 236 236 233 229 225 221 218 214 211 209 209 209 210 212 213 213 214 215 216 215 215 215 216 217 220 223 224 225 225 223 220 217 214 210 207 205 205 206 208 211 215 220 225 231 237 242 245 246
290 289 287 284 281 279 278 276 274 272 271 268 266 266 266 263 258 249 241 234 234 235 234 231 226 222 219 217 215 212 209 208 209 210 212 214 215 217 218 219 217 215 214 213 214 216 217 217 215 213 211 208 206 204 203 203 204 206 209 212 215 220 225 230 234 237 239 240 242
288 287 284 281 279 277 275 273 270 268 267 265 263 261 259 256 248 241 235 235 236 235 234 231 227 222 220 219 218 217 215 213 213 213 215 216 219 220 221 221 217 213 209 208 209 209 209 207 205 203 202 201 201 202 204 205 208 211 214 217 221 225 228 232 234 235 236 237 239
286 284 281 278 276 274 273 270 267 265 264 263 260 256 252 248 240 234 232 235 235 234 233 230 226 222 220 220 219 219 220 220 221 221 222 223 223 223 221 218 211 206 203 203 202 202 201 199 198 197 198 199 201 203 206 209 213 217 221 224 226 228 230 231 232 233 234 236 239
283 281 278 275 273 271 270 267 264 263 262 261 257 251 246 240 234 230 231 233 233 233 232 229 225 221 219 217 216 215 216 218 221 224 225 226 225 222 217 209 202 199 197 198 197 197 196 195 196 196 198 200 203 206 209 213 217 221 225 227 228 229 229 229 230 231 233 235 240
280 278 274 272 270 268 267 264 262 261 260 258 254 248 241 234 229 228 229 232 233 232 230 227 223 219 217 215 213 211 211 213 216 218 220 221 219 214 206 197 193 193 194 194 195 194 194 195 196 198 201 203 206 209 212 217 221 225 227 228 229 227 227 227 228 229 231 237 243
277 275 271 269 267 265 263 261 259 259 259 256 250 244 237 231 227 226 228 231 232 231 227 224 221 218 216 215 213 211 210 210 212 212 212 212 210 205 197 191 189 190 193 193 194 194 195 196 198 201 204 207 209 213 217 222 225 227 228 228 227 226 226 228 230 232 234 240 247
274 271 269 266 264 262 260 257 256 256 257 254 248 241 234 229 225 225 228 231 231 229 226 223 220 218 216 215 214 212 211 210 209 209 207 205 203 200 195 191 189 190 193 194 195 196 197 199 201 204 207 209 212 217 222 227 227 227 226 225 226 226 228 233 241 245 248 250 254
Height
1527 1527 1528 1528 1528 1528 1528 1528 1528 1529 1529 1529 1528 1528 1528 1528 1528 1528 1527 1527 1526 1526 1526 1526 1526 1526 1525 1525 1525 1525 1525 1524 1524 1524 1524 1523 1523 1523 1523 1522 1522 1522 1522 1522 1522 1522 1522 1523 1523 1523 1523 1523 1523 1523 1523 1523 1524 1524 1524 1524 1524 1524 1525 1526 1526 1526 1526 1526 1527
1526 1526 1526 1526 1526 1527 1527 1527 1527 1527 1527 1527 1527 1526 1526 1526 1526 1526 1525 1525 1525 1524 1524 1524 1524 1524 1523 1523 1523 1523 1523 1523 1522 1522 1522 1522 1521 1521 1521 1521 1521 1521 1521 1521 1521 1521 1521 1521 1521 1521 1521 1521 1521 1522 1522 1522 1522 1522 1522 1522 1523 1523 1524 1524 1525 1525 1525 1525 1525
1524 1524 1525 1525 1525 1525 1525 1525 1525 1525 1525 1525 1525 1525 1525 1525 1524 1524 1523 1523 1523 1522 1522 1522 1522 1522 1521 1521 1521 1521 1521 1521 1521 1521 1521 1520 1520 1520 1520 1519 1519 1519 1519 1519 1519 1519 1520 1520 1520 1520 1520 1520 1520 1521 1521 1521 1521 1521 1521 1521 1522 1522 1523 1523 1524 1524 1524 1524 1524
1523 1523 1523 1523 1523 1523 1524 1523 1523 1523 1523 1523 1523 1523 1523 1523 1522 1522 1521 1521 1521 1521 1521 1521 1520 1520 1520 1520 1520 1520 1519 1519 1519 1519 1519 1519 1518 1518 1518 1518 1518 1518 1518 1518 1518 1518 1518 1518 1519 1519 1519 1519 1519 1520 1520 1520 1520 1520 1520 1520 1521 1521 1521 1522 1522 1522 1523 1523 1523
1521 1521 1521 1522 1522 1522 1522 1522 1522 1522 1521 1521 1521 1521 1521 1521 1521 1520 1520 1520 1519 1519 1519 1519 1519 1518 1518 1518 1518 1518 1518 1518 1518 1518 1517 1517 1517 1517 1517 1517 1517 1517 1517 1517 1517 1517 1517 1518 1518 1518 1518 1518 1518 1519 1519 1519 1519 1519 1519 1519 1520 1520 1521 1521 1521 1521 1521 1521 1522
1520 1520 1520 1521 1521 1521 1521 1520 1520 1520 1520 1520 1520 1519 1519 1519 1519 1518 1518 1518 1517 1517 1517 1517 1517 1517 1516 1516 1516 1516 1516 1516 1516 1516 1516 1516 1516 1516 1516 1516 1516 1516 1516 1516 1516 1516 1516 1517 1517 1517 1517 1517 1517 1517 1517 1517 1517 1518 1518 1518 1519 1519 1519 1520 1520 1520 1520 1520 1521
1519 1519 1519 1519 1519 1519 1519 1519 1519 1518 1518 1518 1518 1517 1517 1517 1517 1516 1516 1516 1516 1516 1515 1515 1515 1515 1515 1515 1515 1515 1515 1515 1515 1515 1515 1515 1515 1515 1515 1515 1515 1515 1515 1515 1515 1515 1516 1516 1516 1516 1516 1516 1516 1516 1516 1517 1517 1517 1517 1517 1518 1518 1518 1518 1518 1518 1519 1519 1519
1517 1517 1517 1517 1517 1517 1517 1517 1517 1516 1516 1516 1516 1516 1515 1515 1515 1515 1514 1514 1514 1514 1514 1514 1514 1514 1514 1514 1514 1514 1514 1514 1514 1514 1514 1514 1514 1514 1514 1514 1514 1514 1514 1514 1514 1515 1515 1515 1514 1514 1514 1515 1515 1515 1516 1516 1516 1516 1516 1516 1516 1516 1516 1516 1517 1517 1517 1517 1518
1516 1516 1516 1516 1516 1516 1516 1515 1515 1515 1514 1514 1514 1514 1513 1513 1513 1513 1512 1512 1512 1512 1512 1512 1512 1512 1512 1512 1512 1513 1513 1513 1513 1513 1513 1513 1513 1513 1513 1513 1513 1513 1513 1512 1513 1513 1513 1513 1513 1513 1513 1514 1514 1514 1515 1515 1515 1515 1515 1515 1515 1515 1515 1516 1516 1516 1516 1516 1516
1514 1514 1514 1514 1514 1514 1514 1513 1513 1513 1513 1512 1512 1512 1511 1511 1511 1511 1511 1511 1510 1510 1510 1510 1511 1511 1511 1511 1511 1511 1511 1512 1512 1512 1512 1512 1512 1512 1512 1512 1512 1512 1512 1512 1512 1512 1512 1512 1512 1512 1512 1513 1513 1513 1513 1513 1513 1513 1514 1514 1514 1514 1514 1515 1515 1515 1515 1515 1515
1513 1513 1512 1512 1512 1512 1512 1511 1511 1511 1511 1510 1510 1510 1509 1509 1509 1509 1509 1509 1508 1508 1508 1509 1509 1509 1509 1509 1510 1510 1510 1510 1511 1511 1511 1511 1511 1511 1511 1511 1511 1511 1511 1511 1511 1511 1511 1511 1511 1511 1511 1512 1512 1512 1512 1512 1512 1512 1512 1513 1513 1513 1514 1514 1514 1514 1514 1514 1514
1511 1511 1511 1511 1511 1510 1510 1510 1509 1509 1509 1508 1508 1508 1507 1507 1507 1507 1506 1506 1506 1507 1507 1507 1507 1507 1508 1508 1508 1509 1509 1509 1510 1510 1510 1510 1510 1510 1510 1510 1511 1511 1511 1511 1511 1511 1511 1511 1511 1511 1511 1511 1511 1511 1511 1511 1511 1511 1511 1512 1512 1512 1512 1512 1512 1513 1513 1513 1513
1509 1509 1509 1509 1509 1508 1508 1508 1507 1507 1506 1506 1506 1506 1505 1505 1505 1505 1505 1505 1505 1505 1505 1506 1506 1506 1506 1507 1507 1508 1508 1508 1508 1508 1508 1509 1509 1509 1509 1510 1510 1510 1510 1510 1510 1510 1510 1510 1510 1510 1510 1510 1510 1510 1510 1511 1511 1511 1511 1511 1511 1511 1511 1511 1511 1511 1511 1512 1512
1507 1507 1507 1507 1507 1506 1506 1506 1506 1505 1504 1504 1504 1503 1503 1503 1503 1503 1503 1503 1503 1504 1504 1504 1505 1505 1506 1506 1506 1506 1506 1507 1507 1507 1507 1507 1508 1508 1508 1508 1509 1509 1509 1509 1509 1509 1509 1508 1508 1509 1509 1509 1509 1509 1509 1509 1509 1510 1510 1510 1510 1510 1510 1510 1510 1510 1511 1511 1511
1506 1506 1506 1505 1505 1505 1504 1504 1503 1503 1502 1502 1501 1501 1501 1501 1501 1501 1501 1501 1502 1502 1502 1503 1503 1504 1504 1504 1505 1505 1505 1505 1506 1506 1506 1506 1506 1507 1507 1507 1507 1507 1507 1507 1507 1507 1507 1507 1507 1507 1507 1507 1508 1508 1508 1508 1508 1508 1508 1508 1509 1509 1509 1509 1509 1509 1509 1509 1509
1504 1504 1504 1504 1503 1503 1502 1502 1501 1501 1501 1500 1500 1499 1499 1499 1499 1500 1500 1500 1500 1501 1501 1501 1501 1502 1502 1503 1503 1504 1504 1504 1504 1504 1504 1505 1505 1505 1506 1506 1506 1506 1506 1506 1506 1506 1506 1506 1506 1506 1506 1506 1506 1506 1506 1507 1506 1506 1507 1507 1507 1507 1507 1507 1507 1507 1507 1507 1508
1503 1502 1502 1502 1501 1501 1501 1500 1499 1499 1499 1498 1498 1498 1497 1497 1497 1498 1498 1498 1499 1499 1499 1500 1500 1501 1501 1501 1502 1502 1502 1502 1502 1502 1502 1503 1504 1504 1504 1505 1505 1505 1505 1505 1505 1505 1505 1505 1505 1505 1505 1505 1505 1505 1505 1506 1506 1505 1505 1505 1505 1505 1506 1506 1506 1506 1506 1506 1506
1501 1501 1501 1500 1500 1499 1499 1498 1497 1497 1497 1496 1496 1496 1496 1496 1496 1496 1496 1497 1497 1498 1498 1498 1498 1499 1499 1500 1500 1501 1501 1501 1501 1501 1501 1501 1502 1503 1503 1503 1503 1504 1504 1504 1504 1504 1504 1504 1504 1504 1504 1504 1504 1504 1504 1504 1504 1504 1504 1504 1504 1504 1504 1504 1504 1504 1504 1504 1504
1499 1499 1499 1498 1498 1497 1497 1496 1496 1495 1495 1495 1495 1494 1494 1494 1494 1495 1495 1495 1496 1496 1496 1497 1497 1497 1498 1498 1498 1499 1499 1499 1499 1499 1499 1500 1501 1501 1501 1501 1502 1502 1502 1502 1502 1502 1502 1502 1502 1503 1503 1503 1503 1503 1503 1503 1503 1503 1503 1503 1503 1503 1503 1503 1503 1503 1503 1503 1503
1497 1497 1496 1496 1496 1495 1495 1495 1494 1493 1493 1493 1493 1493 1493 1492 1493 1493 1493 1493 1494 1494 1495 1495 1496 1496 1496 1496 1496 1497 1497 1497 1497 1497 1498 1498 1499 1499 1499 1500 1500 1500 1501 1501 1501 1501 1501 1501 1501 1501 1501 1501 1501 1501 1501 1501 1502 1502 1501 1501 1501 1501 1501 1501 1501 1501 1501 1501 1501
1496 1495 1495 1494 1494 1493 1493 1493 1492 1492 1491 1491 1491 1491 1491 1491 1491 1491 1491 1492 1492 1493 1493 1494 1494 1494 1494 1494 1495 1495 1496 1496 1496 1496 1496 1496 1497 1497 1497 1498 1498 1498 1499 1499 1499 1499 1499 1499 1500 1500 1500 1500 1500 1500 1500 1500 1500 1500 1500 1500 1500 1500 1500 1500 1500 1500 1500 1500 1500
1494 1494 1493 1493 1492 1492 1491 1491 1491 1490 1490 1490 1490 1490 1490 1490 1490 1490 1490 1490 1491 1491 1491 1492 1492 1492 1492 1493 1493 1493 1493 1493 1493 1494 1494 1495 1495 1495 1495 1496 1496 1496 1497 1497 1497 1497 1497 1498 1498 1498 1498 1498 1498 1498 1499 1499 1499 1499 1499 1499 1499 1499 1499 1499 1499 1499 1499 1499 1499
1492 1492 1491 1491 1491 1490 1490 1489 1489 1489 1488 1488 1488 1488 1488 1488 1488 1488 1488 1489 1489 1489 1490 1490 1490 1490 1491 1491 1491 1491 1491 1491 1492 1492 1492 1492 1493 1493 1493 1494 1494 1495 1495 1495 1495 1496 1496 1496 1496 1496 1496 1497 1497 1497 1497 1497 1498 1498 1498 1498 1498 1497 1497 1497 1497 1497 1498 1498 1498
1491 1490 1490 1489 1489 1488 1488 1488 1487 1487 1487 1487 1487 1487 1487 1487 1487 1487 1487 1487 1487 1488 1488 1488 1488 1488 1489 1489 1489 1489 1490 1490 1490 1490 1490 1490 1491 1491 1491 1492 1492 1493 1493 1493 1493 1494 1494 1494 1495 1495 1495 1495 1496 1496 1496 1496 1496 1496 1497 1497 1497 1497 1496 1496 1496 1497 1497 1497 1497
1489 1489 1488 1488 1487 1487 1486 1486 1486 1486 1486 1485 1485 1485 1485 1485 1485 1485 1486 1486 1486 1486 1486 1486 1486 1487 1487 1487 1487 1487 1488 1488 1488 1488 1488 1488 1489 1489 1489 1490 1490 1491 1491 1491 1492 1492 1492 1493 1493 1493 1494 1494 1494 1495 1495 1495 1495 1496 1496 1496 1496 1496 1496 1496 1496 1496 1496 1496 1496
1488 1487 1486 1486 1486 1485 1485 1485 1485 1484 1484 1484 1484 1484 1484 1484 1484 1484 1484 1484 1484 1485 1485 1485 1485 1485 1486 1486 1486 1486 1486 1486 1486 1486 1486 1486 1486 1487 1487 1488 1488 1489 1489 1490 1490 1490 1491 1491 1491 1492 1492 1493 1493 1493 1494 1494 1494 1495 1495 1495 1495 1495 1495 1495 1495 1496 1496 1496 1496
1486 1486 1485 1485 1484 1484 1483 1483 1483 1483 1483 1482 1482 1482 1482 1482 1482 1482 1482 1482 1483 1483 1483 1483 1483 1484 1484 1484 1484 1484 1484 1484 1484 1484 1484 1485 1485 1485 1485 1486 1486 1487 1487 1488 1488 1489 1489 1490 1490 1491 1491 1492 1492 1492 1493 1493 1493 1494 1494 1494 1494 1495 1495 1495 1495 1495 1495 1496 1496
1485 1484 1484 1483 1483 1482 1482 1482 1481 1481 1481 1481 1481 1481 1481 1481 1481 1481 1481 1481 1481 1481 1481 1481 1482 1482 1482 1482 1482 1482 1482 1482 1482 1482 1483 1483 1483 1483 1484 1484 1485 1485 1486 1486 1487 1487 1488 1489 1489 1490 1490 1491 1491 1491 1492 1492 1493 1493 1493 1494 1494 1494 1494 1494 1494 1495 1495 1495 1495
1483 1483 1482 1482 1481 1481 1481 1480 1480 1480 1480 1480 1480 1480 1480 1479 1479 1479 1479 1480 1480 1480 1480 1480 1480 1480 1481 1481 1481 1481 1481 1481 1481 1481 1481 1481 1482 1482 1482 1483 1483 1484 1485 1485 1486 1486 1487 1488 1488 1489 1490 1490 1491 1491 1491 1491 1492 1492 1493 1493 1493 1494 1494 1494 1494 1494 1495 1495 1495
1481 1481 1481 1480 1480 1479 1479 1479 1479 1479 1479 1479 1479 1479 1478 1478 1478 1478 1478 1478 1478 1478 1479 1479 1479 1479 1479 1479 1479 1479 1479 1479 1480 1480 1480 1480 1481 1481 1481 1482 1483 1483 1484 1485 1485 1486 1486 1487 1488 1488 1489 1489 1490 1490 1491 1491 1491 1492 1492 1492 1493 1493 1493 1493 1494 1494 1494 1494 1495
1480 1480 1479 1479 1478 1478 1478 1477 1477 1477 1477 1477 1477 1477 1477 1477 1477 1477 1477 1477 1477 1477 1477 1478 1478 1478 1478 1478 1478 1478 1478 1479 1479 1479 1479 1480 1480 1481 1481 1481 1482 1483 1483 1484 1485 1486 1486 1486 1487 1488 1488 1489 1489 1490 1490 1490 1491 1491 1492 1492 1492 1493 1493 1493 1493 1494 1494 1494 1494
1479 1478 1478 1477 1477 1476 1476 1476 1476 1476 1476 1476 1476 1476 1476 1476 1476 1476 1476 1476 1476 1476 1476 1477 1477 1477 1477 1477 1477 1478 1478 1478 1478 1479 1479 1479 1480 1480 1481 1481 1482 1482 1483 1484 1484 1485 1486 1486 1487 1487 1488 1488 1489 1489 1490 1490 1491 1491 1491 1492 1492 1492 1493 1493 1493 1493 1493 1493 1493
1477 1477 1476 1476 1476 1475 1475 1475 1475 1475 1475 1475 1475 1475 1475 1475 1475 1475 1475 1476 1476 1476 1476 1476 1476 1476 1476 1477 1477 1477 1477 1478 1478 1478 1479 1479 1480 1480 1480 1481 1481 1482 1483 1483 1484 1485 1485 1486 1486 1487 1487 1488 1488 1489 1489 1490 1490 1491 1491 1491 1492 1492 1492 1492 1492 1492 1493 1493 1493
1476 1475 1475 1475 1474 1474 1474 1474 1474 1474 1474 1474 1474 1474 1474 1474 1474 1474 1475 1475 1475 1475 1476 1476 1476 1476 1476 1476 1476 1477 1477 1477 1478 1478 1479 1479 1479 1480 1480 1481 1481 1482 1482 1483 1484 1484 1485 1486 1486 1486 1487 1488 1488 1488 1489 1489 1490 1490 1491 1491 1491 1491 1492 1492 1492 1492 1492 1492 1493
1474 1474 1474 1473 1473 1473 1473 1473 1472 1473 1473 1473 1473 1473 1473 1473 1473 1474 1474 1474 1474 1475 1475 1475 1475 1476 1476 1476 1476 1476 1477 1477 1477 1478 1478 1479 1479 1480 1480 1480 1481 1481 1482 1483 1483 1484 1485 1485 1486 1486 1487 1487 1488 1488 1489 1489 1490 1490 1490 1491 1491 1491 1491 1491 1491 1492 1492 1492 1492
1473 1473 1472 1472 1472 1472 1471 1471 1471 1471 1472 1472 1472 1472 1472 1472 1473 1473 1473 1474 1474 1474 1474 1475 1475 1475 1475 1476 1476 1476 1476 1477 1477 1478 1478 1479 1479 1479 1480 1480 1481 1481 1482 1483 1483 1484 1485 1485 1486 1486 1487 1487 1488 1488 1488 1489 1489 1490 1490 1490 1490 1491 1491 1491 1491 1491 1491 1491 1492
1471 1471 1471 1471 1471 1471 1470 1470 1471 1471 1471 1471 1471 1471 1471 1472 1472 1472 1473 1473 1473 1473 1474 1474 1474 1475 1475 1475 1476 1476 1476 1477 1477 1478 1478 1479 1479 1479 1479 1480 1481 1481 1482 1483 1483 1484 1484 1485 1486 1486 1486 1487 1487 1488 1488 1488 1489 1489 1489 1489 1490 1490 1490 1490 1491 1491 1491 1491 1491
1470 1470 1470 1470 1470 1469 1469 1469 1470 1470 1470 1470 1470 1471 1471 1471 1471 1472 1472 1472 1473 1473 1473 1473 1474 1474 1475 1475 1476 1476 1476 1477 1477 1478 1478 1478 1479 1479 1480 1480 1481 1481 1482 1483 1483 1484 1484 1485 1485 1486 1486 1487 1487 1487 1488 1488 1488 1488 1489 1489 1489 1490 1490 1490 1490 1490 1490 1490 1490
1469 1469 1469 1468 1468 1468 1468 1468 1469 1469 1469 1469 1469 1470 1470 1471 1471 1471 1471 1472 1472 1472 1472 1473 1473 1474 1474 1475 1475 1476 1476 1476 1477 1477 1478 1478 1479 1479 1480 1480 1481 1481 1482 1482 1483 1484 1484 1485 1485 1486 1486 1486 1487 1487 1487 1487 1488 1488 1488 1489 1489 1489 1489 1490 1490 1490 1490 1490 1490
1467 1467 1467 1467 1467 1467 1467 1467 1468 1468 1468 1468 1469 1469 1469 1470 1470 1471 1471 1471 1472 1472 1472 1472 1473 1473 1474 1474 1475 1475 1476 1476 1476 1477 1477 1478 1479 1479 1480 1480 1481 1481 1482 1482 1483 1483 1484 1485 1485 1485 1486 1486 1486 1486 1487 1487 1487 1488 1488 1488 1488 1489 1489 1489 1489 1489 1489 1489 1489
1466 1466 1466 1466 1466 1466 1466 1466 1466 1467 1467 1468 1468 1468 1469 1469 1470 1470 1471 1471 1471 1471 1472 1472 1472 1473 1473 1474 1474 1475 1475 1476 1476 1477 1477 1478 1478 1479 1479 1480 1480 1481 1481 1482 1483 1483 1484 1484 1485 1485 1485 1486 1486 1486 1486 1487 1487 1487 1487 1488 1488 1488 1488 1488 1488 1488 1488 1489 1489